[[{"header":{"parameterUnit":"m.s-1","parameterCategory":1,"la1":30.2991,"la2":30.254,"lo1":-89.0895,"lo2":-89.0444,"dy":0.0017,"dx":0.0017,"nx":28,"ny":28,"refTime":"2024-08-20T21:00:00:Z","depth":0,"parameterNumber":2,"parameterNumberName":"U-component_of_WINDS"},"data":[0,0,0,0,0,0,0,0,0,0,0,0,0,0,0,0,0,0,0,0,0,0,0,0,0,0,0,0,0,0,0,0,0,0,0,0,0,0,0,0,0,0,0,0,0,0,0,0,0,0,0,0,0,0,0,0,0,0,-0.1638,-0.1637,0,-0.1546,-0.1545,-0.1544,-0.1517,-0.1518,-0.1518,-0.1519,-0.1425,-0.1422,-0.1419,0,0,0,0,0,0,0,0,0,0,0,0,0,-0.179,-0.1787,-0.1638,-0.1637,-0.1636,-0.1547,-0.1545,-0.1544,-0.1517,-0.1518,-0.1518,-0.1519,-0.1426,-0.1423,-0.1419,0,0,0,0,0,0,0,0,0,0,0,0,0,-0.1714,-0.1786,-0.1638,-0.1612,-0.1608,-0.1547,-0.1545,-0.1544,-0.1517,-0.1518,-0.1518,-0.1519,-0.1427,-0.1423,-0.1419,-0.1377,0,0,-0.1405,-0.1403,0,0,0,0,0,0,0,0,-0.1718,-0.1708,-0.1617,-0.1613,-0.1609,-0.1544,-0.1564,-0.1488,-0.1517,-0.1552,-0.1519,-0.152,-0.1464,-0.1457,-0.1438,-0.1373,-0.1369,-0.1405,-0.1402,-0.14,-0.1399,0,0,0,0,0,0,0,-0.1723,-0.1712,-0.1602,-0.1615,-0.1611,-0.1604,-0.1594,-0.155,-0.1505,-0.1549,-0.1547,-0.1536,-0.1462,-0.1442,-0.1436,-0.1367,-0.1405,-0.1401,-0.1398,-0.1396,-0.1264,-0.1263,0,0,0,0,0,0,-0.1733,-0.1717,-0.1605,-0.1599,-0.1667,-0.1601,-0.159,-0.1564,-0.1505,-0.1497,-0.1536,-0.1535,-0.1449,-0.1441,-0.1432,-0.138,-0.14,-0.1396,-0.1394,-0.1265,-0.1264,-0.1263,0,0,0,0,0,0,-0.1737,-0.1723,-0.1608,-0.1657,-0.1642,-0.1598,-0.1569,-0.1562,-0.1542,-0.1495,-0.1487,-0.1523,-0.145,-0.1438,-0.1391,-0.1377,-0.1394,-0.139,-0.1266,-0.1265,-0.1263,-0.1276,0,0,0,0,0,0,-0.1741,-0.1725,-0.1709,-0.1657,-0.1639,-0.1569,-0.1568,-0.156,-0.1534,-0.1533,-0.1482,-0.1474,-0.1449,-0.1398,-0.1387,-0.1371,-0.1387,-0.1267,-0.1265,-0.1264,-0.1276,-0.1275,-0.1274,0,0,0,0,0,-0.1747,-0.1716,-0.1708,-0.1694,-0.1618,-0.1568,-0.1558,-0.153,-0.1533,-0.1517,-0.1487,-0.1476,-0.138,-0.1393,-0.138,-0.1363,-0.1268,-0.1266,-0.1264,-0.1277,-0.1275,-0.1274,0,0,0,0,0,0,-0.1767,-0.1708,-0.1699,-0.165,-0.1614,-0.1563,-0.1542,-0.1529,-0.1491,-0.1492,-0.1459,-0.1447,-0.1403,-0.1378,-0.1394,-0.132,-0.1323,-0.1319,-0.1338,-0.1336,-0.1334,-0.1342,-0.1383,0,0,0,0,0,-0.1765,-0.1729,-0.168,-0.1642,-0.1625,-0.1586,-0.1563,-0.1545,-0.1506,-0.1491,-0.1457,-0.1421,-0.1382,-0.1357,-0.1319,-0.1273,-0.1261,-0.1254,-0.1253,-0.1252,-0.1249,-0.1223,-0.1219,-0.1256,-0.1256,-0.1256,0,0,-0.1762,-0.1726,-0.1705,-0.1645,-0.1615,-0.1579,-0.1574,-0.1535,-0.1508,-0.1485,-0.1439,-0.1413,-0.1369,-0.1322,-0.13,-0.13,-0.1236,-0.125,-0.1249,-0.1246,-0.122,-0.1217,-0.1214,-0.1255,-0.1255,-0.1255,0,0,-0.1739,-0.1707,-0.1672,-0.1642,-0.1597,-0.1571,-0.1563,-0.1514,-0.1496,-0.1449,-0.1431,-0.1398,-0.1333,-0.1303,-0.1279,-0.1244,-0.1232,-0.1232,-0.1226,-0.1201,-0.1198,-0.1195,-0.1183,-0.1179,-0.1229,-0.1229,-0.1229,0,-0.1741,-0.1685,-0.1656,-0.1619,-0.1593,-0.157,-0.1535,-0.1507,-0.1452,-0.1435,-0.1436,-0.1353,-0.1322,-0.1268,-0.126,-0.1241,-0.1231,-0.1238,-0.1201,-0.1198,-0.1195,-0.1183,-0.1179,-0.1229,-0.1229,-0.1229,-0.1229,0,-0.169,-0.1652,-0.1629,-0.1576,-0.1548,-0.1512,-0.1477,-0.1452,-0.1436,-0.1411,-0.1364,-0.1326,-0.128,-0.1266,-0.125,-0.121,-0.1211,-0.1207,-0.121,-0.1192,-0.118,-0.1176,-0.123,-0.123,-0.123,-0.123,0,0,-0.1677,-0.1608,-0.16,-0.1576,-0.1525,-0.1494,-0.1457,-0.1413,-0.1392,-0.1354,-0.1323,-0.1268,-0.1264,-0.1237,-0.1217,-0.1195,-0.1171,-0.1194,-0.1192,-0.1191,-0.1125,-0.1129,-0.1125,-0.1163,-0.1162,-0.1161,-0.1129,0,-0.1647,-0.158,-0.1552,-0.1498,-0.1463,-0.1441,-0.1409,-0.1374,-0.1349,-0.1316,-0.1289,-0.1251,-0.1247,-0.1231,-0.1208,-0.1179,-0.1158,-0.1181,-0.1134,-0.1133,-0.1146,-0.1118,-0.1122,-0.1094,-0.1124,-0.1124,-0.1123,0,-0.1603,-0.1565,-0.1508,-0.1461,-0.1445,-0.1416,-0.1373,-0.1341,-0.1301,-0.1285,-0.1255,-0.1237,-0.1198,-0.1203,-0.1149,-0.1165,-0.1144,-0.1127,-0.1125,-0.112,-0.1127,-0.1113,-0.1084,-0.108,-0.1116,-0.1116,-0.1117,0,-0.16,-0.1534,-0.1492,-0.1472,-0.1415,-0.1396,-0.1372,-0.1332,-0.1307,-0.127,-0.1253,-0.1212,-0.1189,-0.1158,-0.1129,-0.1135,-0.1078,-0.108,-0.1064,-0.1064,-0.1053,-0.1054,-0.102,-0.1038,-0.1039,-0.1039,-0.1039,0,-0.157,-0.1535,-0.1489,-0.1463,-0.1424,-0.1393,-0.1356,-0.133,-0.1295,-0.1264,-0.1242,-0.1213,-0.1177,-0.1143,-0.1121,-0.108,-0.1069,-0.1055,-0.105,-0.1058,-0.106,-0.1044,-0.1045,-0.1037,-0.1038,-0.1038,-0.1038,0,-0.1559,-0.1527,-0.1479,-0.143,-0.1417,-0.139,-0.1348,-0.1322,-0.1297,-0.1257,-0.1246,-0.1206,-0.1166,-0.1134,-0.1081,-0.1066,-0.1023,-0.1017,-0.1037,-0.1034,-0.1019,-0.1021,-0.0975,-0.0967,-0.099,-0.099,-0.099,0,-0.1543,-0.1516,-0.1464,-0.1441,-0.1417,-0.1381,-0.1355,-0.1324,-0.1298,-0.1251,-0.123,-0.1188,-0.1153,-0.109,-0.1056,-0.1016,-0.1009,-0.0995,-0.1002,-0.1011,-0.1009,-0.1011,-0.1009,-0.0994,-0.0994,-0.0994,-0.0994,0,-0.1516,-0.1502,-0.1466,-0.1424,-0.1394,-0.136,-0.1325,-0.1308,-0.127,-0.1242,-0.1201,-0.1173,-0.112,-0.1078,-0.1035,-0.101,-0.0996,-0.0992,-0.0986,-0.0994,-0.1007,-0.1,-0.1035,-0.0993,-0.0993,-0.0994,-0.0994,-0.0994,-0.1502,-0.1478,-0.1437,-0.1398,-0.1369,-0.1337,-0.131,-0.1281,-0.1246,-0.12,-0.1183,-0.114,-0.1102,-0.1041,-0.1016,-0.0983,-0.0982,-0.0973,-0.0971,-0.097,-0.0971,-0.1012,-0.0975,-0.0975,-0.0975,-0.0975,-0.0975,0,-0.1475,-0.1448,-0.1413,-0.1365,-0.1334,-0.1323,-0.1284,-0.1259,-0.1222,-0.1187,-0.1152,-0.1105,-0.1065,-0.1029,-0.0987,-0.0967,-0.096,-0.0957,-0.0959,-0.0954,-0.0974,-0.0983,-0.0964,-0.0964,-0.0964,-0.0964,-0.0964,-0.0964,-0.1458,-0.1416,-0.1397,-0.134,-0.1313,-0.1271,-0.125,-0.122,-0.1192,-0.114,-0.1107,-0.1083,-0.1047,-0.1003,-0.0966,-0.0957,-0.0943,-0.0942,-0.0931,-0.0951,-0.0952,-0.0953,-0.0962,-0.0939,-0.0939,-0.0914,-0.0913,-0.0913]},{"header":{"parameterUnit":"m.s-1","parameterCategory":1,"la1":30.2991,"la2":30.254,"lo1":-89.0895,"lo2":-89.0444,"dy":0.0017,"dx":0.0017,"nx":28,"ny":28,"refTime":"2024-08-20T21:00:00:Z","depth":0,"parameterNumber":3,"parameterNumberName":"V-component_of_WINDS"},"data":[0,0,0,0,0,0,0,0,0,0,0,0,0,0,0,0,0,0,0,0,0,0,0,0,0,0,0,0,0,0,0,0,0,0,0,0,0,0,0,0,0,0,0,0,0,0,0,0,0,0,0,0,0,0,0,0,0,0,0.9327,0.9328,0,0.9437,0.9438,0.9439,0.9427,0.9425,0.9423,0.9422,0.9536,0.954,0.9545,0,0,0,0,0,0,0,0,0,0,0,0,0,0.9104,0.9108,0.9326,0.9328,0.9329,0.9437,0.9438,0.944,0.9427,0.9425,0.9423,0.9421,0.9534,0.954,0.9546,0,0,0,0,0,0,0,0,0,0,0,0,0,0.9206,0.9109,0.9326,0.9336,0.9338,0.9436,0.9438,0.944,0.9428,0.9425,0.9422,0.942,0.9533,0.9539,0.9546,0.9643,0,0,0.9568,0.9571,0,0,0,0,0,0,0,0,0.92,0.9214,0.9333,0.9335,0.9338,0.9415,0.9402,0.9508,0.9428,0.9394,0.9422,0.9418,0.9498,0.9508,0.9534,0.9648,0.9653,0.9568,0.9573,0.9576,0.9578,0,0,0,0,0,0,0,0.9193,0.921,0.937,0.9335,0.9338,0.9334,0.9346,0.9422,0.9459,0.9396,0.9396,0.9409,0.9499,0.9528,0.9537,0.9655,0.9568,0.9575,0.9579,0.9582,0.9849,0.9852,0,0,0,0,0,0,0.9184,0.9204,0.9367,0.9374,0.9261,0.9341,0.9353,0.9393,0.9458,0.9466,0.9411,0.9408,0.9517,0.9529,0.9541,0.9655,0.9576,0.9582,0.9586,0.9846,0.985,0.9853,0,0,0,0,0,0,0.9179,0.9198,0.9362,0.9288,0.9309,0.9347,0.9392,0.9397,0.9425,0.947,0.9476,0.9433,0.9515,0.9531,0.9617,0.9659,0.9585,0.9592,0.9843,0.9847,0.9851,0.9886,0,0,0,0,0,0,0.9173,0.9197,0.9234,0.9289,0.9313,0.9436,0.9395,0.9401,0.9437,0.9434,0.9492,0.9499,0.9514,0.9606,0.9624,0.9667,0.9597,0.9839,0.9845,0.985,0.9881,0.9891,0.9899,0,0,0,0,0,0.9165,0.9241,0.9236,0.9256,0.9361,0.9439,0.9452,0.9468,0.9441,0.9478,0.9506,0.9498,0.9652,0.9615,0.9635,0.9681,0.9837,0.9843,0.985,0.9877,0.9889,0.9899,0,0,0,0,0,0,0.9191,0.9248,0.9244,0.934,0.9384,0.9437,0.9484,0.948,0.9534,0.9529,0.9546,0.9559,0.9645,0.9672,0.963,0.9776,0.9741,0.9751,0.9755,0.9766,0.9775,0.9766,0.9603,0,0,0,0,0,0.9208,0.9266,0.9314,0.9394,0.9416,0.9446,0.9481,0.9489,0.9536,0.9555,0.9589,0.9635,0.9693,0.9732,0.9789,0.9885,0.9896,0.9927,0.9936,0.9943,0.9951,1.0001,1.0014,0.9874,0.9874,0.9874,0,0,0.9243,0.9282,0.9318,0.94,0.9435,0.9495,0.9463,0.9528,0.9572,0.9565,0.9647,0.9674,0.9726,0.9816,0.9858,0.9842,0.9992,0.9951,0.9957,0.9961,1.0009,1.0022,1.0034,0.9879,0.9878,0.9877,0,0,0.9337,0.9374,0.9443,0.9478,0.9532,0.9551,0.9567,0.962,0.9637,0.9719,0.9714,0.9767,0.9868,0.9904,0.9936,1.0041,1.0034,1.006,1.0106,1.0154,1.0165,1.0175,1.0209,1.0221,1.0068,1.0068,1.0068,0,0.9375,0.9464,0.9479,0.9544,0.9578,0.9574,0.9643,0.9677,0.9747,0.977,0.9751,0.9875,0.9911,1.0008,1.0033,1.006,1.0078,1.0052,1.0162,1.0172,1.0181,1.0214,1.0227,1.0071,1.007,1.007,1.007,0,0.9506,0.9568,0.9617,0.9682,0.9723,0.979,0.9813,0.9853,0.9857,0.9877,0.996,1.0002,1.0065,1.0089,1.0094,1.0186,1.0174,1.0158,1.0123,1.0197,1.0228,1.0241,1.0074,1.0073,1.0073,1.0072,0,0,0.9619,0.969,0.9707,0.9735,0.9793,0.9841,0.9907,0.9967,0.9999,1.0048,1.0101,1.0186,1.0171,1.0207,1.0216,1.0259,1.0335,1.0238,1.0239,1.0251,1.0435,1.0443,1.0458,1.0331,1.0334,1.0336,1.0429,0,0.9717,0.9832,0.9846,0.9948,1.0003,0.9999,1.0056,1.0097,1.0118,1.0168,1.0191,1.0249,1.0227,1.0248,1.029,1.0317,1.0371,1.031,1.0379,1.0382,1.0363,1.0475,1.0485,1.0571,1.0442,1.0444,1.0445,0,0.9846,0.9895,1.0002,1.0048,1.0072,1.0123,1.0178,1.0227,1.0272,1.0284,1.0323,1.0326,1.0392,1.0356,1.0446,1.0404,1.0433,1.045,1.0454,1.0459,1.0416,1.048,1.06,1.0611,1.0465,1.0464,1.0462,0,0.9913,1.0007,1.0082,1.0106,1.0164,1.0199,1.0225,1.0268,1.0302,1.0351,1.0373,1.0429,1.0459,1.0502,1.0519,1.0491,1.0607,1.0572,1.0617,1.0616,1.064,1.0638,1.0763,1.0664,1.0663,1.0663,1.0663,0,1.0018,1.0083,1.0112,1.0158,1.023,1.0245,1.0316,1.034,1.0378,1.0428,1.0429,1.0475,1.0497,1.0546,1.0561,1.0631,1.0646,1.0656,1.0658,1.0654,1.0652,1.0672,1.0665,1.0667,1.0666,1.0665,1.0665,0,1.0105,1.0128,1.0209,1.0256,1.0269,1.0319,1.0359,1.0403,1.0423,1.0486,1.0501,1.0533,1.0591,1.0613,1.0685,1.0694,1.0774,1.0774,1.0758,1.0758,1.08,1.0795,1.094,1.0958,1.085,1.0851,1.0852,0,1.017,1.0219,1.027,1.0303,1.0329,1.0383,1.0417,1.0434,1.047,1.0524,1.0561,1.0619,1.0665,1.0758,1.0787,1.0841,1.084,1.0887,1.0848,1.0841,1.0836,1.0832,1.0835,1.0893,1.0894,1.0895,1.0896,0,1.028,1.0288,1.0338,1.039,1.0431,1.0474,1.0515,1.0542,1.0565,1.0605,1.0664,1.07,1.0772,1.0828,1.0883,1.0908,1.0905,1.0908,1.0921,1.0916,1.0903,1.0907,1.0775,1.0904,1.0903,1.0903,1.0902,1.0902,1.0356,1.0398,1.0439,1.0494,1.0526,1.0565,1.0607,1.0631,1.068,1.0739,1.0746,1.0809,1.0851,1.0924,1.0952,1.1,1.0987,1.1006,1.1011,1.1014,1.1015,1.0898,1.1011,1.101,1.101,1.101,1.101,0,1.0463,1.0489,1.0539,1.0596,1.0638,1.0632,1.0676,1.0712,1.0766,1.0806,1.0851,1.0917,1.0971,1.1003,1.1057,1.1089,1.1089,1.1103,1.1099,1.1104,1.1026,1.1008,1.1102,1.1102,1.1102,1.1102,1.1102,1.1102,1.0524,1.0593,1.0606,1.0691,1.0718,1.0778,1.0803,1.0838,1.0869,1.0942,1.0986,1.1007,1.1043,1.1099,1.1147,1.1156,1.1174,1.1188,1.1195,1.112,1.111,1.1101,1.1084,1.1193,1.1193,1.1269,1.127,1.127]}]]